Погода в Горячинске

Погода в Горячинске : погода сейчас, прогноз погоды и архив. Всё, что Вы хотите узнать о погоде в Горячинске!

Поиск расширенной информации на нашем сайте:

Другие новости

Новости СМИ2

Главная страница сайта

Новости сайта

03.07.2017

Напоминаем, что на нашем специализированном сайте Метеоцентр.Азия вы можете получить высокодетализированные автоматические прогнозы погоды по пунктам России, СНГ и мира в авиационном формате (включающие направление и скорость ветра, видимость, явления погоды, количество и форму облачности, нижнюю и верхнюю границу облачности).


Погода в Горячинске - сегодня

Время (UTC), дата Ветер
(°,м/с) 
Видим.   Явления Облачность Т
(°С)
Тd
(°С)
f(%) Тe
(°С)
Pmin
(гПа)
dP
(гПа)
Po
(мм)
O2
(г/м3)
Тmin Tmax R s Состояние
почвы
21 17.04.18 110 (В) н/о    ясно 
-3.5 -5.2 88 -3  1010.2  713  291           
00 18.04.18 260 (З) 20000 м    4/0 верхняя 
[Ci sp]
+3.1 -2.7 66 +3  1008.6  -0.1  713  284  -4      мокрый или
старый снег
10-40% 
03 18.04.18 210 (ЮЗ) 20000 м    3/0 верхняя 
[Ci sp]
+14.5 -6.5 23 +15  1003.9  -2.3  711  273           
06 18.04.18 280 (З) 20000 м    8/3 1000 м средняя, верхняя 
[Sc diur, vesp|Ac cast|Ci sp]
+7.5 -2.6 49 +7  1005.1  -0.1  711  279           
12 18.04.18 080 (В) н/о  {ливн. осадки}  8/5 1000 м средняя, верхняя 
[Sc|Ac lent|Ci fib]
+3.4 -1.4 71 +4  1013.4  2.2  716  285    +15.1  0.0     
15 18.04.18 тихо ()   н/о    3/3 1000 м 
[Sc]
-0.6 -3.7 80 -1  1015.8  1.4  717  290           
18 18.04.18 120 (ЮВ) н/о    ясно 
-2.5 -4.4 87 -2  1017.4  1.4  718  292           
21 18.04.18 120 (ЮВ) н/о    ясно 
-2.4 -5.9 77 -2  1017.7  0.3  718  292           
00 19.04.18 240 (ЮЗ) 20000 м    10/10 1000 м 
[Sc]
+0.6 -9.9 45 +1  1017.7  0.6  718  290  -3      мокрый или
старый снег
10-40% 
03 19.04.18 290 (З) 20000 м    10/0 средняя 
[Ac As]
+2.1 -7.2 50 +1  1017.1  -0.3  718  288           
06 19.04.18 350 (С) 20000 м    10/0 средняя 
[Ac As]
+2.1 -8.6 45 1017.2  0.1  718  288           
09 19.04.18 320 (СЗ) 20000 м    3/0 средняя, верхняя 
[Ac lent|Ci fib]
+3.5 -13.2 28 +3  1017.9  0.9  719  287           
15 19.04.18 100 (В) н/о    3/3 1000 м 
[Sc]
-3.5 -8.4 69 -3  1021  0.9  720  295           
18 19.04.18 080 (В) н/о    ясно 
-3.9 -8.9 68 -3  1022.1  0.9  721  295           
21 19.04.18 150 (ЮВ) н/о    3/1 1000 м верхняя 
[Sc|Ci fib]
-4.4 -8 76 -4  1023.1  0.9  722  296           
03 20.04.18 260 (З) 20000 м    1/1 1000 м 
[Cu hum]
+2.7 -5.7 54 +2  1023.7  0.4  723  289           
06 20.04.18 300 (СЗ) 20000 м    ясно 
+5.3 -9.8 33 +5  1022.1  -1  722  286           
09 20.04.18 320 (СЗ) 20000 м    ясно 
+7.8 -10.4 26 +8  1019.7  -1.8  721  283           
15 20.04.18 230 (ЮЗ) н/о    3/0 верхняя 
[Ci sp]
-2.8 -5.8 80 -2  1023.1  1.1  722  294           
18 20.04.18 200 (Ю) н/о    ясно 
-3.9 -6.2 84 -3  1023.5  722  296           
21 20.04.18 090 (В) н/о    3/0 верхняя 
[Ci fib]
-5.2 -6.7 89 -5  1024  0.3  722  297           
00 21.04.18 290 (З) 20000 м    8/0 верхняя 
[Cc]
-2.1 -6.3 73 -2  1025.1  1.6  723  294  -5.9      мокрый или
старый снег
10-40% 
03 21.04.18 280 (З) 20000 м    ясно 
+1.9 -6.2 55 +1  1025.1  0.9  724  290           
06 21.04.18 260 (З) 20000 м    ясно 
+2.5 -4.1 62 +1  1026.1  725  290           
09 21.04.18 260 (З) 20000 м    ясно 
+6.6 -12.3 24 +8  1025.1  -0.2  725  286           
Время (UTC), дата Ветер
(°,м/с) 
Видим.   Явления Облачность Т
(°С)
Тd
(°С)
f(%) Тe
(°С)
Pmin
(гПа)
dP
(гПа)
Po
(мм)
O2
(г/м3)
Тmin Tmax R s Состояние
почвы

Для получения пояснительной информации подведите курсор к названию столбца.

ПОГОДА в Горячинске - архив

Всё, что Вы хотите узнать о погоде в Горячинске - удобно и подробно!

Выберите нужную дату (начиная с 1 января 2015* года) и нажмите кнопку "Найти".
Будут отображены архивные сводки погоды по пункту Горячинск, начиная с указанной даты.


Отображать данные в формате CSV (для использования в таблицах Excel)


Внимание! Наш архив погоды предназначен исключительно для личного некоммерческого использования в познавательных целях. Если Вам необходимы официальные справки о состоянии погоды (для производственных, юридических, коммерческих и т.п. целей), обращайтесь в органы Росгидромета.

*Примечание: данная дата относится к архиву по метеостанциям СССР (Россия, СНГ, Балтия).
Архив по метеостанциям Зарубежной Европы и Азии (кроме Китая) хранится 10 дней, по другим регионам земного шара (Китай, Африка, Америка, Австралия, Океания) - 1 день.

Горячинск - район местоположения метеостанции


Название, широта, долгота, высота метеостанции:
Горячинск 53°ш. 108.3°д. 487 м над ур. моря [Российская Федерация]

Дополнительная информация

В oтличие oт бoльшинства пoгoдных сайтoв мы публикуем пoдрoбную метеoинфoрмацию в детальнoм прoфессиoнальнoм фoрмате.

Характеристики температуры и влажнoсти вoздуха измеряются на высoте 2 м в тени вдали oт зданий и деревьев.
Скoрoсть ветра измеряется на высoте 10 м (на урoвне рoста челoвека скoрoсть ветра ниже в 1.5-2 раза). Если метеoстанция нахoдится в гoрoде или в лесу, тo скoрoсть ветра занижена на 2-4 м/с пo сравнению с oткрытым местoм. Скoрoсть ветра над акватoриями крупных рек и oзёр, а также на вершинах хoлмoв на 2-5 м/с выше, чем в oбычных услoвиях.
Атмoсфернoе давление в разных тoчках местнoсти мoжет значительнo oтличаться oт давления на метеoстанции, в зависимoсти oт услoвий рельефа (при пoдъёме на 10 м давление пoнижается примернo на 1 мм рт.ст.).